Location: *
(33.3200°N, 8.3381°W)
Time: 14:00:13
(UTC+00:00)

COSMOS 2406 - Pass Details

Date: 09 April 2020
Orbit: 842 x 865 km, 71.0° (Epoch: 04 June)

Event Time Altitude Azimuth Distance (km) Brightness Sun altitude
Exits shadow 20:54:57 31° 56° (NE) 1,455 4.2 -23.5°
Drops below altitude 10° 20:58:09 10° 35° (NE) 2,476 5.6 -24.1°
Sets 21:00:42 0° 29° (NNE) 3,419 6.4 -24.6°
